Date String (YYYY-MM-DD hh:mm:ss) UTC,Instrument flags,Ambient pressure (hPa),Sample flow (lpm),Bypass flow (lpm),Sample temperature (°C),Ambient temperature (°C),ASC tube jacket temperature (°C),LED temperature (°C),Box temperature (°C),Sample RH (%),Span deviation,Mass concentration (μg/m³),Mass concentration (μg/m³),Mass concentration (μg/m³)
DateTimeUTC,F1_M11,P_M11,Q1_M11,Q2_M11,T1_M11,T2_M11,T3_M11,T4_M11,T5_M11,U1_M11,ZSPAN_M11,X2_M11,X0_M11,X1_M11
2023-04-07 23:00:00,,0829.4,5.00,0.00,26.5,25.1,00.0,34.8,28.0,06.8,0000.0,0005.17,0011.27,0004.48
2023-04-07 23:01:00,,0829.4,5.01,0.00,26.5,25.1,00.0,34.8,28.0,07.1,0000.0,0005.15,0011.48,0004.45
2023-04-07 23:02:00,,0829.4,4.99,0.00,26.5,25.1,00.0,34.8,28.0,07.0,0000.0,0005.13,0012.61,0004.40
2023-04-07 23:03:00,,0829.4,5.00,0.00,26.5,25.1,00.0,34.8,28.1,07.1,0000.0,0005.10,0013.00,0004.36
2023-04-07 23:04:00,,0829.4,5.01,0.00,26.5,25.1,00.0,34.8,28.1,07.0,0000.0,0005.05,0013.24,0004.34
2023-04-07 23:05:00,,0829.5,5.00,0.00,26.5,25.2,00.0,34.8,28.1,07.1,0000.0,0005.01,0012.87,0004.32
2023-04-07 23:06:00,,0829.4,4.99,0.00,26.5,25.2,00.0,34.8,28.1,06.9,0000.0,0004.96,0013.58,0004.31
2023-04-07 23:07:00,,0829.5,5.01,0.00,26.5,25.2,00.0,34.8,28.1,06.7,0000.0,0004.93,0014.70,0004.30
2023-04-07 23:08:00,,0829.5,5.00,0.00,26.5,25.2,00.0,34.8,28.1,06.8,0000.0,0004.88,0014.72,0004.28
2023-04-07 23:09:00,,0829.5,5.00,0.00,26.5,25.2,00.0,34.9,28.1,06.9,0000.0,0004.83,0014.49,0004.25
2023-04-07 23:10:00,,0829.5,5.00,0.00,26.6,25.2,00.0,34.9,28.1,06.7,0000.0,0004.80,0014.44,0004.22
2023-04-07 23:11:00,,0829.5,4.99,0.00,26.6,25.3,00.0,34.9,28.2,06.7,0000.0,0004.77,0015.01,0004.20
2023-04-07 23:12:00,,0829.5,5.01,0.00,26.6,25.3,00.0,34.9,28.2,07.2,0000.0,0004.74,0015.39,0004.17
2023-04-07 23:13:00,,0829.5,5.01,0.00,26.6,25.3,00.0,34.9,28.2,07.5,0000.0,0004.68,0014.42,0004.14
2023-04-07 23:14:00,,0829.5,5.00,0.00,26.6,25.3,00.0,34.9,28.2,07.6,0000.0,0004.65,0013.63,0004.12
2023-04-07 23:15:00,,0829.4,5.00,0.00,26.6,25.2,00.0,34.9,28.2,07.7,0000.0,0004.66,0013.18,0004.12
2023-04-07 23:16:00,,0829.4,5.00,0.00,26.6,25.2,00.0,34.9,28.2,06.8,0000.0,0004.65,0012.15,0004.12
2023-04-07 23:17:00,,0829.5,5.01,0.00,26.6,25.3,00.0,34.9,28.2,06.7,0000.0,0004.67,0012.22,0004.12
2023-04-07 23:18:00,,0829.4,5.00,0.00,26.6,25.3,00.0,34.9,28.2,06.8,0000.0,0004.68,0011.13,0004.11
2023-04-07 23:19:00,,0829.5,5.00,0.00,26.6,25.3,00.0,34.9,28.2,06.7,0000.0,0004.73,0010.48,0004.11
2023-04-07 23:20:00,,0829.4,5.00,0.00,26.6,25.3,00.0,34.9,28.2,06.7,0000.0,0004.72,0010.47,0004.11
2023-04-07 23:21:00,,0829.5,4.99,0.00,26.6,25.3,00.0,34.9,28.2,06.6,0000.0,0004.72,0010.78,0004.12
2023-04-07 23:22:00,,0829.4,5.00,0.00,26.6,25.3,00.0,34.9,28.2,06.5,0000.0,0004.73,0010.12,0004.13
2023-04-07 23:23:00,,0829.5,4.99,0.00,26.7,25.4,00.0,35.0,28.2,06.5,0000.0,0004.75,0009.66,0004.15
2023-04-07 23:24:00,,0829.4,5.01,0.00,26.7,25.4,00.0,35.0,28.2,06.5,0000.0,0004.80,0010.41,0004.16
2023-04-07 23:25:00,,0829.3,4.99,0.00,26.7,25.4,00.0,35.0,28.3,06.5,0000.0,0004.82,0010.59,0004.17
2023-04-07 23:26:00,,0829.3,4.98,0.00,26.7,25.4,00.0,35.0,28.3,06.5,0000.0,0004.85,0010.63,0004.16
2023-04-07 23:27:00,,0829.4,5.00,0.00,26.7,25.5,00.0,35.0,28.3,06.4,0000.0,0004.86,0010.63,0004.14
2023-04-07 23:28:00,,0829.4,5.02,0.00,26.7,25.5,00.0,35.0,28.3,06.4,0000.0,0004.82,0009.97,0004.11
2023-04-07 23:29:00,,0829.4,4.99,0.00,26.7,25.5,00.0,35.0,28.3,06.4,0000.0,0004.79,0009.80,0004.10
2023-04-07 23:30:00,,0829.4,4.99,0.00,26.8,25.5,00.0,35.0,28.4,06.4,0000.0,0004.77,0009.71,0004.10
2023-04-07 23:31:00,,0829.4,5.01,0.00,26.8,25.5,00.0,35.0,28.3,06.4,0000.0,0004.78,0009.72,0004.10
2023-04-07 23:32:00,,0829.5,4.99,0.00,26.8,25.5,00.0,35.1,28.3,06.4,0000.0,0004.77,0009.25,0004.09
2023-04-07 23:33:00,,0829.4,5.00,0.00,26.8,25.5,00.0,35.1,28.4,06.6,0000.0,0004.75,0009.02,0004.07
2023-04-07 23:34:00,,0829.4,4.99,0.00,26.8,25.5,00.0,35.1,28.3,06.5,0000.0,0004.71,0008.96,0004.04
2023-04-07 23:35:00,,0829.3,4.99,0.00,26.8,25.5,00.0,35.1,28.3,06.5,0000.0,0004.69,0008.59,0004.02
2023-04-07 23:36:00,,0829.3,5.00,0.00,26.8,25.5,00.0,35.1,28.4,06.5,0000.0,0004.69,0008.64,0004.01
2023-04-07 23:37:00,,0829.3,5.00,0.00,26.8,25.5,00.0,35.1,28.4,06.5,0000.0,0004.63,0008.52,0004.00
2023-04-07 23:38:00,,0829.3,5.00,0.00,26.8,25.5,00.0,35.1,28.4,06.4,0000.0,0004.57,0008.44,0003.98
2023-04-07 23:39:00,,0829.3,5.01,0.00,26.8,25.5,00.0,35.1,28.4,06.4,0000.0,0004.60,0008.55,0003.98
2023-04-07 23:40:00,,0829.3,5.00,0.00,26.8,25.5,00.0,35.1,28.4,06.4,0000.0,0004.59,0008.81,0003.97
2023-04-07 23:41:00,,0829.3,5.00,0.00,26.8,25.5,00.0,35.1,28.4,06.7,0000.0,0004.56,0009.25,0003.94
2023-04-07 23:42:00,,0829.4,5.00,0.00,26.8,25.4,00.0,35.1,28.4,06.9,0000.0,0004.53,0009.26,0003.91
2023-04-07 23:43:00,,0829.5,5.00,0.00,26.8,25.4,00.0,35.1,28.4,06.6,0000.0,0004.53,0009.39,0003.88
2023-04-07 23:44:00,,0829.5,5.00,0.00,26.8,25.4,00.0,35.1,28.4,07.2,0000.0,0004.49,0009.29,0003.85
2023-04-07 23:45:00,,0829.5,5.00,0.00,26.8,25.4,00.0,35.1,28.3,07.1,0000.0,0004.45,0009.20,0003.84
2023-04-07 23:46:00,,0829.5,5.01,0.00,26.8,25.5,00.0,35.1,28.4,06.6,0000.0,0004.40,0009.07,0003.79
2023-04-07 23:47:00,,0829.4,5.00,0.00,26.8,25.5,00.0,35.1,28.4,06.6,0000.0,0004.33,0009.22,0003.71
2023-04-07 23:48:00,,0829.4,5.00,0.00,26.8,25.5,00.0,35.2,28.4,06.5,0000.0,0004.29,0009.25,0003.66
2023-04-07 23:49:00,,0829.4,4.99,0.00,26.9,25.5,00.0,35.2,28.4,06.6,0000.0,0004.26,0009.27,0003.61
2023-04-07 23:50:00,,0829.4,4.99,0.00,26.9,25.5,00.0,35.2,28.4,06.7,0000.0,0004.21,0009.37,0003.55
2023-04-07 23:51:00,,0829.4,5.01,0.00,26.9,25.6,00.0,35.2,28.5,06.7,0000.0,0004.16,0009.14,0003.47
2023-04-07 23:52:00,,0829.4,5.01,0.00,26.9,25.5,00.0,35.2,28.5,06.6,0000.0,0004.13,0008.96,0003.39
2023-04-07 23:53:00,,0829.4,5.00,0.00,26.9,25.5,00.0,35.2,28.5,06.5,0000.0,0004.08,0009.89,0003.32
2023-04-07 23:54:00,,0829.4,4.99,0.00,26.9,25.5,00.0,35.2,28.5,06.4,0000.0,0003.95,0009.77,0003.25
2023-04-07 23:55:00,,0829.5,4.99,0.00,26.9,25.5,00.0,35.2,28.5,06.5,0000.0,0003.87,0010.41,0003.18
2023-04-07 23:56:00,,0829.5,5.00,0.00,26.9,25.5,00.0,35.2,28.5,06.5,0000.0,0003.86,0010.51,0003.13
2023-04-07 23:57:00,,0829.5,5.00,0.00,26.9,25.5,00.0,35.2,28.5,06.5,0000.0,0003.83,0010.84,0003.11
2023-04-07 23:58:00,,0829.5,5.01,0.00,26.9,25.5,00.0,35.2,28.5,06.6,0000.0,0003.80,0010.31,0003.12
2023-04-07 23:59:00,,0829.4,5.00,0.00,26.9,25.5,00.0,35.2,28.5,06.9,0000.0,0003.79,0010.63,0003.10
